Location: Lamoine Observatory
(44.4551°N, 68.3470°W)
Time: 03:13:22
(UTC-04:00)

Daily predictions for brighter satellites

Satellite Brightness Start Highest point End
(mag) Time Altitude Azimuth Time Altitude Azimuth Time Altitude Azimuth
Aureole 2 Rocket 2.9 00:03:46 10° NNW 00:06:17 52° NW 00:06:17 52° NW
Cosmos 1607 4.1 00:02:11 10° NNW 00:08:20 68° NE 00:11:19 31° SE
Cosmos 1674 Rocket 3.8 00:04:17 10° N 00:08:40 57° E 00:09:19 51° ESE
Cosmos 2084 Rocket 3.5 00:12:58 56° E 00:12:58 56° E 00:16:12 10° NE
Cosmos 1606 4.0 00:09:15 10° NNE 00:12:42 30° ENE 00:13:02 30° E
Cosmos 921 Rocket 3.7 00:13:23 39° E 00:13:23 39° E 00:17:11 10° NNE
CZ-4C R/B 3.8 00:15:17 44° W 00:15:17 44° W 00:18:26 10° NNW
ATLAS 2AS CENTAUR R/B 3.8 00:08:30 10° WSW 00:15:55 51° NW 00:23:51 10° NNE
Cosmos 2237 Rocket 4.3 00:17:13 10° WNW 00:19:47 13° W 00:21:31 12° WSW
Cosmos 44 Rocket 3.7 00:22:33 34° SW 00:24:47 66° NW 00:30:02 10° NNE
CZ-4C R/B 3.0 00:17:51 10° NW 00:24:51 71° NE 00:29:59 23° SE
Cosmos 2154 Rocket 4.0 00:23:50 43° SSE 00:26:00 74° E 00:32:16 10° NNE
Cosmos 1908 Rocket 4.0 00:27:19 44° ESE 00:27:38 45° E 00:31:47 10° NNE
ATLAS 3B R/B 3.5 00:23:51 10° NW 00:29:47 31° WSW 00:31:15 29° SW
Lacrosse 4 Rocket 3.3 00:26:43 10° WNW 00:29:44 20° WSW 00:29:44 20° WSW
Cosmos 1892 2.9 00:30:53 60° W 00:30:54 60° W 00:34:40 10° N
Cosmos 1356 Rocket 3.2 00:35:06 82° SW 00:35:15 85° WNW 00:39:21 10° N
Meteor 2-3 Rocket 4.4 00:33:21 31° SW 00:35:43 47° WNW 00:41:14 10° N
USA 238 DEB 3.9 00:33:00 10° NW 00:39:51 57° WSW 00:42:03 41° S
MOS 1-B Rocket 3.7 00:38:04 46° SSE 00:39:53 89° WSW 00:45:32 10° NNW
USA 238 3.9 00:33:06 10° NW 00:39:58 57° WSW 00:42:11 41° S
Meteor 1-10 Rocket 4.4 00:36:14 10° NNW 00:42:08 66° W 00:43:54 45° SSW
Cosmos 1408 3.6 00:43:12 38° E 00:43:12 38° E 00:46:36 10° NNE
Geosat 3.9 00:38:22 10° NNE 00:43:26 79° ESE 00:44:34 54° SSW
Cosmos 2251 Rocket 4.0 00:40:01 10° NNW 00:45:03 43° WSW 00:45:53 40° SW
Cosmos 1689 Rocket 4.1 00:47:10 25° WNW 00:47:10 25° WNW 00:49:20 10° NW
Okean 3 3.7 00:47:15 10° N 00:51:32 60° E 00:52:10 53° ESE
Landsat 5 4.5 00:51:58 36° WSW 00:52:19 36° W 00:56:32 10° NNW
Cosmos 1825 2.5 00:54:19 54° E 00:54:19 54° E 00:57:59 10° NNE
Sich 1 Rocket 3.7 00:56:52 56° SW 00:57:31 65° W 01:02:02 10° N
H-2A R/B 4.0 00:54:37 10° N 00:58:16 29° WNW 00:59:30 25° W
CZ-2C R/B 3.3 00:56:36 41° SSE 00:58:42 78° ENE 01:04:19 10° N
Cosmos 1733 Rocket 4.0 00:58:01 34° WSW 00:58:54 37° WNW 01:03:04 10° N
Cosmos 2341 Rocket 4.0 00:56:56 42° SSW 00:59:17 80° W 01:05:42 10° N
USA 234 4.0 00:57:07 10° ESE 01:03:25 52° NNE 01:09:43 10° NW
Cosmos 2263 Rocket 2.5 01:02:46 43° SSE 01:04:11 54° ESE 01:09:43 10° NE
CENTAUR R/B 4.4 00:57:41 10° NNW 01:04:38 37° NE 01:12:04 10° ESE
Cosmos 1867 3.7 00:59:25 10° NNW 01:04:56 71° NE 01:07:41 30° SE
Cosmos 962 Rocket 4.5 01:03:15 42° SSW 01:05:24 72° W 01:11:33 10° N
Meteor 2-13 Rocket 4.4 01:06:44 44° S 01:08:51 83° E 01:15:02 10° N
Cosmos 1782 3.9 01:05:33 10° NNW 01:09:01 31° W 01:09:01 31° W
SeaSat 1 4.5 01:09:19 14° W 01:09:19 14° W 01:11:47 10° WNW
ALOS 2 4.4 01:09:14 18° W 01:09:26 18° W 01:12:30 10° NW
CZ-4B R/B 3.9 01:10:44 14° W 01:10:44 14° W 01:12:02 10° WNW
Cosmos 1378 Rocket 3.5 01:05:42 10° NNW 01:10:02 64° W 01:10:26 60° SW
SL-8 Rocket 4.0 01:10:30 41° S 01:12:51 80° E 01:19:13 10° N
SL-16 R/B 4.4 01:12:10 10° W 01:13:05 10° W 01:13:53 10° WSW
NOSS 3-2 (C) 3.9 01:06:09 10° NW 01:13:39 88° SW 01:19:14 22° SE
Coronas F rocket 4.1 01:15:30 14° NW 01:15:30 14° NW 01:16:29 10° NNW
Helios 1A Rocket 4.1 01:12:12 10° N 01:15:58 33° WNW 01:16:52 30° W
Cosmos 1184 Rocket 3.9 01:17:17 37° E 01:17:17 37° E 01:20:11 10° NNE
Cosmos 1238 Rocket 3.5 01:15:58 10° NNW 01:19:25 37° W 01:19:25 37° W
Cosmos 2218 Rocket 4.0 01:20:12 40° S 01:22:38 79° E 01:29:00 10° N
COSMOS 2406 4.3 01:17:36 10° NNW 01:23:06 42° ENE 01:28:25 10° SE
Cosmos 1242 Rocket 3.3 01:21:52 10° N 01:25:12 41° ENE 01:25:36 39° E
CZ-2C R/B 3.0 01:20:42 10° N 01:25:47 52° WNW 01:27:31 36° WSW
Cosmos 44 4.3 01:24:33 26° WSW 01:27:19 48° NW 01:32:37 10° NNE
Okean 2 Rocket 3.2 01:34:32 53° SW 01:35:25 67° W 01:39:56 10° N
RESURS DK-1 2.4 01:35:07 59° SSE 01:35:34 64° ESE 01:39:42 10° NNE
Cosmos 1782 Rocket 3.8 01:35:33 47° WSW 01:36:19 54° WNW 01:40:39 10° N
Cosmos 2366 rocket 3.9 01:33:53 39° S 01:36:21 86° E 01:42:35 10° N
NOSS 3-2 (A) 4.1 01:29:15 10° NW 01:36:35 58° WSW 01:40:29 31° S
Cosmos 1943 3.6 01:31:40 10° NW 01:37:01 43° WSW 01:38:09 39° SW
NOSS 3-4 (A) 3.5 01:34:20 35° SW 01:37:19 84° NW 01:43:58 10° NE
NOSS 3-4 (C) 3.5 01:34:27 35° SW 01:37:24 85° NW 01:44:04 10° NE
CRYOSAT 2 4.4 01:42:29 10° N 01:47:21 71° E 01:49:00 41° SSE
Meteor 1-14 Rocket 4.3 01:47:57 38° S 01:50:25 88° E 01:56:20 10° N
Cosmos 1190 Rocket 4.0 01:48:41 10° NNW 01:53:56 79° ENE 01:56:41 29° SSE
Landsat 4 3.9 01:53:23 44° SE 01:54:24 65° ENE 01:58:10 10° N
BREEZE-M DEB (TANK) 3.9 01:41:47 10° WSW 01:56:18 70° NNW 02:00:14 10° ENE
Cosmos 1975 Rocket 4.1 01:53:09 10° NNW 01:57:00 30° W 01:57:28 30° WSW
Cosmos 1727 Rocket 4.0 01:50:50 10° NNW 01:57:02 70° W 01:59:48 34° SSW
Cosmos 1371 Rocket 4.2 02:01:57 37° SW 02:04:05 68° WNW 02:09:27 10° NNE
Cosmos 2056 Rocket 3.4 02:03:05 39° SSW 02:05:07 87° WNW 02:10:24 10° NNE
NPP 4.1 02:01:41 10° NNE 02:06:59 54° E 02:09:42 28° SSE
Cosmos 407 Rocket 3.4 02:03:33 10° NNW 02:08:44 85° ENE 02:11:51 25° SSE
Cosmos 1536 Rocket 3.5 02:04:43 10° NNW 02:09:06 71° W 02:10:23 44° SSW
CZ-4C R/B 3.7 02:07:02 10° NW 02:13:07 30° WSW 02:15:06 27° SW
USA 161 4.3 02:11:23 10° ESE 02:13:20 17° ENE 02:15:21 10° NNE
Meteor 1-18 Rocket 4.2 02:08:56 10° NNW 02:14:35 78° W 02:17:37 29° S
JB-3 4.2 02:12:33 10° N 02:16:26 73° WNW 02:17:25 47° SW
Cosmos 676 Rocket 4.0 02:12:37 10° NNW 02:17:50 78° ENE 02:21:43 18° SSE
Gbstr 26 Del rocket 3.5 02:21:53 34° SSE 02:22:24 35° SE 02:25:53 10° ENE
PSLV R/B 3.9 02:18:34 10° N 02:22:40 52° WNW 02:24:03 36° SW
CZ-2D R/B 4.1 02:21:01 10° NE 02:25:08 22° E 02:29:17 10° SE
ERS-2 2.5 02:22:41 10° NNE 02:26:22 57° ESE 02:27:41 35° SSE
Cosmos 909 Rocket 4.3 02:24:06 26° SW 02:27:58 74° NW 02:35:34 10° NNE
SL-27 R/B 2.4 02:25:13 10° NNW 02:28:52 72° WSW 02:29:56 43° S
IRAS Rocket 4.2 02:25:51 10° NNE 02:31:24 87° ESE 02:34:31 28° SSW
Abrixas rocket 2.4 02:30:35 35° W 02:31:51 68° NNW 02:35:12 10° ENE
BREEZE-M DEB (TANK) 4.3 02:30:26 10° WNW 02:34:19 60° NNE 02:48:56 10° E
Cosmos 2151 Rocket 4.5 02:33:02 28° WSW 02:34:34 36° WNW 02:38:43 10° N
Meteor 1-20 Rocket 4.3 02:31:21 28° SSW 02:34:34 80° W 02:40:24 10° N
Cosmos 1812 2.8 02:32:02 10° NNW 02:35:53 59° W 02:37:06 38° SSW
Cosmos 724 4.4 02:32:11 10° NW 02:38:16 66° WSW 02:44:22 10° SSE
Cosmos 1000 Rocket 4.4 02:32:13 10° NNW 02:38:21 75° W 02:42:34 21° S
Cosmos 489 Rocket 4.4 02:32:17 10° NNW 02:38:35 87° WSW 02:44:43 10° SSE
Okean 1-7 Rocket 3.6 02:34:30 10° N 02:39:06 84° W 02:41:46 25° S
SL-08 R/B 3.4 02:38:23 26° S 02:41:09 66° WSW 02:46:03 10° NNW
Iridium 4 Rocket 4.1 02:37:05 10° NNW 02:41:23 37° W 02:43:23 26° SW
Okean 1 Rocket 3.0 02:40:15 31° SSW 02:42:21 82° W 02:46:52 10° N
Meteor 1-11 Rocket 4.3 02:38:16 18° S 02:42:41 60° E 02:48:34 10° NNE
IRS-1C 4.2 02:38:38 10° NNE 02:44:00 78° ESE 02:47:26 23° S
Cosmos 1954 Rocket 3.9 02:39:08 10° NNW 02:44:20 81° WSW 02:48:46 14° SSE
Cosmos 1844 Rocket 2.7 02:41:38 26° SSW 02:44:58 78° ESE 02:50:40 10° NNE
Meteor 1-13 Rocket 4.3 02:39:29 10° N 02:45:12 86° E 02:50:18 14° S
USA 234 3.3 02:39:56 10° SSE 02:46:22 58° SW 02:52:49 10° NW
CBERS 1 LM4 rocket 4.4 02:41:26 10° NNE 02:46:23 76° ESE 02:49:20 24° S
Cosmos 2263 Rocket 3.7 02:44:27 13° WSW 02:48:25 27° NW 02:53:14 10° N
Okean O Rocket 4.2 02:51:16 10° ENE 02:53:16 13° E 02:55:15 10° ESE
AQUA 3.9 02:50:29 10° N 02:55:13 67° WNW 02:57:59 24° SSW
Cosmos 1844 3.9 02:52:11 22° SSW 02:55:56 71° ESE 03:01:41 10° NNE
CENTAUR R/B 3.0 02:48:15 10° NW 02:56:02 74° WSW 03:04:18 10° SSE
SL-16 R/B 3.0 02:50:54 10° SSE 02:57:03 64° ENE 03:03:12 10° N
Okean 1 4.0 02:54:11 10° NNW 02:57:54 38° W 02:59:22 27° SW
Meteor 2-14 Rocket 4.5 02:53:36 18° S 02:58:18 81° E 03:04:24 10° N
Cosmos 1605 Rocket 4.2 02:56:07 14° S 03:01:23 72° E 03:07:39 10° NNE
Cosmos 1821 Rocket 4.1 02:58:09 21° SSW 03:02:39 69° W 03:09:03 10° N
GP-B 3.6 02:58:30 10° N 03:02:46 46° W 03:05:07 24° SW
Cosmos 1400 Rocket 3.8 02:59:53 14° SSE 03:02:58 41° E 03:06:41 10° NNE
Cosmos 1025 Rocket 3.0 02:59:14 10° N 03:03:34 85° E 03:07:22 13° S
Cosmos 2123 Rocket 4.0 02:57:35 10° N 03:03:58 85° W 03:10:17 10° S
Meteor 2-21 Rocket 4.4 03:00:50 19° SSW 03:05:19 79° W 03:11:28 10° N
ATLAS 5 CENTAUR R/B 2.8 03:00:25 10° NNW 03:06:19 68° NE 03:12:39 10° SE
Cosmos 1455 Rocket 4.5 03:02:28 10° SSE 03:06:31 35° E 03:10:35 10° NNE
Resurs 1-4 Rocket 2.9 03:01:29 10° NNE 03:06:38 48° E 03:11:43 10° S
Meteor 2-15 4.4 03:00:43 10° N 03:06:54 84° W 03:13:02 10° S
COSMOS 2406 4.0 03:02:12 10° NW 03:07:17 32° WSW 03:10:25 19° SSW
ARIANE 5 R/B 2.7 03:03:46 10° NNE 03:08:45 66° ESE 03:13:00 14° S
Cosmos 2278 Rocket 2.5 03:04:52 17° S 03:09:12 61° ESE 03:14:49 10° NNE
Cosmos 1452 Rocket 3.8 03:07:41 21° SW 03:11:05 54° WNW 03:16:16 10° NNE
Cosmos 1023 Rocket 4.4 03:09:48 10° NNW 03:14:51 66° WSW 03:19:52 10° S
Cosmos 1356 3.8 03:17:16 16° S 03:20:01 64° E 03:23:33 10° NNE
Cosmos 1420 Rocket 4.0 03:17:15 18° SSW 03:21:17 83° WNW 03:26:37 10° NNE
ADEOS 3.8 03:16:48 10° N 03:21:56 59° WNW 03:25:57 17° SW
Cosmos 2082 Rocket 3.3 03:20:34 10° NNW 03:26:08 49° ENE 03:31:39 10° SE
Cosmos 1602 4.2 03:24:09 20° SW 03:26:32 45° WNW 03:30:16 10° N
Cosmos 1633 2.5 03:24:31 18° SSW 03:27:08 76° W 03:30:48 10° N
Cosmos 1315 Rocket 3.5 03:26:50 10° S 03:30:47 52° E 03:34:44 10° NNE
COSMOS 2487 2.9 03:28:21 10° NNW 03:31:50 43° WSW 03:35:05 11° S
Cosmos 1544 Rocket 3.5 03:28:06 13° S 03:32:05 88° W 03:36:31 10° N
Meteor 2-4 Rocket 3.6 03:29:30 10° NNW 03:34:53 69° W 03:40:11 10° S
Cosmos 1140 Rocket 3.9 03:30:50 10° NNW 03:35:40 43° WSW 03:40:29 10° S
NOSS 2-2 (D) 3.7 03:32:27 16° SW 03:35:43 72° NW 03:40:41 10° NE
SME Rocket 2.9 03:39:53 10° S 03:43:34 61° WSW 03:47:49 10° NNW
USA 161 3.1 03:42:28 16° SW 03:43:36 20° W 03:45:51 10° NW
BREEZE-M DEB (TANK) 3.9 03:34:12 10° WNW 03:46:04 61° N 03:49:28 10° E
BREEZE-M TANK 3.2 03:44:26 12° WSW 03:46:04 19° SSW 03:48:30 10° SSE
Okean 2 3.4 03:42:52 10° NNW 03:46:56 63° W 03:50:59 10° S
Cosmos 1975 4.2 03:43:34 10° SSE 03:47:16 38° E 03:51:00 10° NNE
NOSS 2-2 (C) 4.1 03:46:30 13° SW 03:50:13 54° NW 03:55:09 10° NNE
Cosmos 1850 Rocket 4.5 03:46:37 10° NW 03:51:31 41° WSW 03:56:25 10° S
Cosmos 1459 Rocket 4.3 03:46:15 10° S 03:52:34 74° E 03:58:51 10° NNE
Cosmos 1892 Rocket 4.0 03:49:23 10° NNW 03:53:29 41° W 03:57:32 10° SSW
Cosmos 1741 Rocket 4.5 03:48:59 10° NW 03:53:55 41° WSW 03:58:47 10° S
UNKNOWN OBJECT B 2.9 03:52:29 10° N 03:56:36 78° WNW 04:00:41 10° SSW
Cosmos 1536 3.9 03:54:17 12° SW 03:57:37 30° WNW 04:01:14 10° NNW
Cosmos 2100 Rocket 4.1 03:51:32 10° S 03:57:46 85° E 04:04:09 10° N
ERS-2 4.5 03:58:12 10° NW 03:59:42 12° WNW 04:01:12 10° W
UNK 4.4 04:01:02 10° SSW 04:05:15 35° W 04:09:33 10° NNW
CZ-2D R/B 2.5 04:00:13 10° N 04:05:32 56° WNW 04:10:52 10° SSW
PSLV R/B 4.2 04:02:50 10° NNE 04:07:01 73° ESE 04:11:07 10° S
Cosmos 1833 Rocket 2.9 04:02:48 10° NNW 04:08:28 81° ENE 04:14:04 10° SSE
Gbstr 26 Del rocket 3.5 04:05:25 10° W 04:09:10 46° NNW 04:12:46 10° NE
Abrixas rocket 3.6 04:06:03 10° WNW 04:09:15 40° N 04:12:27 10° ENE
CZ-2D R/B 3.4 04:10:20 10° N 04:14:18 67° WNW 04:18:19 10° SSW
IRS-1D 4.4 04:11:55 10° N 04:16:28 34° WNW 04:20:57 10° SW
USA 129 2.3 04:14:54 10° S 04:16:52 34° W 04:18:47 10° NNW
Cosmos 1461 4.0 04:12:32 10° WSW 04:16:59 41° NW 04:21:20 10° NNE
Timation 2 Rocket 4.3 04:12:58 10° NW 04:18:39 40° WSW 04:24:10 10° S
APEX 2.7 04:15:48 10° SSW 04:18:42 90° NNW 04:22:13 10° NNE
Okean-O 4.2 04:16:23 10° NNE 04:20:28 35° E 04:24:32 10° SSE
